Weather History for CYYT - September, 2013

Change the Weather History Date:

Friday, September 27, 2013

  Actual Average Record
Temperature  
Mean Temperature 46 °F -  
Max Temperature 49 °F 52 °F 69 °F (2008)
Min Temperature 42 °F 39 °F 37 °F (2010)
Degree Days  
Heating Degree Days 20    
Moisture  
Dew Point 47 °F    
Average Humidity 98    
Maximum Humidity 100    
Minimum Humidity 90    
Precipitation  
Precipitation 0.47 in 0.20 in - ()
Sea Level Pressure  
Sea Level Pressure 29.71 in    
Wind  
Wind Speed 19 mph ()    
Max Wind Speed 29 mph    
Max Gust Speed 43 mph    
Visibility 6.0 miles    
Events Rain    
Averages and records for this station are not official NWS values.
T = Trace of Precipitation, MM = Missing Value Source: Averaged Metar Reports

Daily Weather History Graph

Daily Weather History Graph

Search for Another Location

Airport or City:

Trip Planner

Search our weather history database for the weather conditions in past years. The results will help you decide how hot, cold, wet, or windy it might be!

Date:

Astronomy

Sep. 27, 2013 Rise Set
Actual Time 6:54 AM NDT 6:48 PM NDT
Civil Twilight 6:24 AM NDT 7:18 PM NDT
Nautical Twilight 5:48 AM NDT 7:54 PM NDT
Astronomical Twilight 5:11 AM NDT 8:31 PM NDT
Moon No Moon Rise 2:44 PM NDT (9/27)
Length of Visible Light 12h 54m
Length of Day
11h 53m
Last Quarter, 46% of the Moon is Illuminated
Sep 27
Last Quarter
Oct 4
New
Oct 11
First Quarter
Oct 18
Full
Oct 26
Last Quarter

Hourly Weather History & Observations

Time (NDT) Temp. Windchill Dew Point Humidity Pressure Visibility Wind Dir Wind Speed Gust Speed Precip Events Conditions
12:07 AM 51.8 °F - 51.8 °F 100% 29.62 in 1.5 mi NE 16.1 mph 23.0 mph N/A Rain Light Rain
12:30 AM 51.8 °F - 51.8 °F 100% 29.62 in 3.0 mi NE 11.5 mph 21.9 mph N/A Rain Light Rain
12:56 AM 51.8 °F - 51.8 °F 100% 29.62 in 1.5 mi NNE 17.3 mph 27.6 mph N/A Rain Light Rain
1:30 AM 50.0 °F - 50.0 °F 100% 29.62 in 4.0 mi NNE 17.3 mph 27.6 mph N/A Rain Light Rain
2:06 AM 50.0 °F - 50.0 °F 100% 29.61 in 2.0 mi North 13.8 mph 21.9 mph N/A Rain Light Rain
2:30 AM 50.0 °F - 50.0 °F 100% 29.61 in 4.0 mi NNE 15.0 mph 24.2 mph N/A Rain Light Rain
3:30 AM 49 °F - 49 °F 100% 29.60 in 3 mi North 19.6 mph - - Rain Light Rain
3:30 AM 50.0 °F - 50.0 °F 100% 29.60 in 3.0 mi North 20.7 mph 28.8 mph N/A Rain Light Rain
4:11 AM 50.0 °F - 50.0 °F 100% 29.60 in 3.0 mi NNE 18.4 mph 25.3 mph N/A Rain Rain
4:30 AM 50.0 °F - 50.0 °F 100% 29.60 in 4.0 mi North 24.2 mph 34.5 mph N/A Rain Rain
5:05 AM 48.2 °F - 48.2 °F 100% 29.60 in 2.0 mi North 21.9 mph 34.5 mph N/A Rain Light Rain
5:30 AM 48.2 °F - 48.2 °F 100% 29.60 in 4.0 mi North 25.3 mph 36.8 mph N/A Rain Light Rain
6:30 AM 48.2 °F - 48.2 °F 100% 29.60 in 3.0 mi North 25.3 mph 38.0 mph N/A Rain Light Rain
7:30 AM 48.2 °F - 48.2 °F 100% 29.62 in 3.0 mi North 24.2 mph 38.0 mph N/A Rain Light Rain
7:35 AM 48.2 °F - 48.2 °F 100% 29.62 in 2.0 mi North 23.0 mph 35.7 mph N/A Rain Light Rain
8:30 AM 48.2 °F - 48.2 °F 100% 29.63 in 1.5 mi North 23.0 mph 34.5 mph N/A Rain Light Rain
9:30 AM 48 °F - 48 °F 99% 29.67 in 2 mi North 26.5 mph - - Rain Light Rain
9:30 AM 48.2 °F - 48.2 °F 100% 29.67 in 2.5 mi North 23.0 mph 38.0 mph N/A Rain Light Rain
10:12 AM 48.2 °F - 48.2 °F 100% 29.68 in 4.0 mi North 26.5 mph 42.6 mph N/A Rain Light Rain
10:30 AM 48.2 °F - 48.2 °F 100% 29.69 in 4.0 mi North 20.7 mph - N/A Rain Light Rain
11:05 AM 46.4 °F 37.9 °F 46.4 °F 100% 29.70 in 2.0 mi North 25.3 mph 33.4 mph N/A Rain Light Rain
11:30 AM 46.4 °F 38.1 °F 46.4 °F 100% 29.71 in 1.5 mi North 24.2 mph 35.7 mph N/A Rain Light Rain
11:34 AM 46.4 °F 38.1 °F 46.4 °F 100% 29.71 in 1.0 mi North 24.2 mph 35.7 mph N/A Rain Light Rain
12:30 PM 46.4 °F 38.1 °F 46.4 °F 100% 29.73 in 1.0 mi North 24.2 mph 38.0 mph N/A Rain Light Rain
12:44 PM 46.4 °F 38.5 °F 46.4 °F 100% 29.73 in 3.0 mi North 21.9 mph 36.8 mph N/A Rain Light Rain
1:30 PM 46.4 °F 39.0 °F 46.4 °F 100% 29.75 in 2.5 mi North 19.6 mph 35.7 mph N/A Rain Light Rain
2:30 PM 46.4 °F 37.9 °F 44.6 °F 93% 29.76 in 3.0 mi North 25.3 mph 39.1 mph N/A Rain Light Rain
3:30 PM 45 °F - 45 °F 100% 29.78 in 3 mi North 25.3 mph - - Rain Light Rain
3:30 PM 44.6 °F 35.5 °F 44.6 °F 100% 29.78 in 3.0 mi North 25.3 mph 38.0 mph N/A Rain Light Rain
4:30 PM 44.6 °F 36.6 °F 44.6 °F 100% 29.79 in 12.0 mi North 19.6 mph 36.8 mph N/A   Overcast
5:30 PM 44.6 °F 36.1 °F 42.8 °F 93% 29.81 in 15.0 mi North 21.9 mph 39.1 mph N/A   Overcast
6:30 PM 44.6 °F 35.5 °F 42.8 °F 93% 29.83 in 15.0 mi North 25.3 mph 39.1 mph N/A   Mostly Cloudy
7:30 PM 44.6 °F 35.9 °F 42.8 °F 93% 29.85 in 15.0 mi North 23.0 mph 35.7 mph N/A   Overcast
7:47 PM 44.6 °F 34.9 °F 42.8 °F 93% 29.85 in 15.0 mi North 28.8 mph 39.1 mph N/A   Light Drizzle
8:30 PM 44.6 °F 37.4 °F 42.8 °F 93% 29.87 in 15.0 mi North 16.1 mph 34.5 mph N/A   Light Drizzle
9:30 PM 43 °F - 41 °F 90% 29.88 in 15 mi North 23.0 mph - - Rain Light Drizzle
9:30 PM 42.8 °F 33.3 °F 41.0 °F 93% 29.88 in 15.0 mi North 24.2 mph 35.7 mph N/A   Overcast
10:04 PM 42.8 °F 34.0 °F 42.8 °F 100% 29.89 in 15.0 mi North 20.7 mph 34.5 mph N/A   Light Drizzle
10:30 PM 42.8 °F 34.0 °F 41.0 °F 93% 29.90 in 15.0 mi North 20.7 mph 32.2 mph N/A   Light Drizzle
11:30 PM 42.8 °F 34.0 °F 41.0 °F 93% 29.90 in 15.0 mi North 20.7 mph 29.9 mph N/A   Light Drizzle